Location: Stoke Bliss
(52.2667°N, 2.5167°W)
Time: 12:35:14
(UTC+00:00)

Nauka - Visible Passes

Search period start: 20 September 2021 00:00
Search period end: 30 September 2021 00:00
Orbit: 419 x 423 km, 51.6° (Epoch: 19 September)

Date Brightness Start Highest point End Pass type
(mag) Time Alt. Az. Time Alt. Az. Time Alt. Az.
20 Sep ? 18:54:10 10° SSW 18:57:03 27° SSE 18:59:51 11° E visible
20 Sep ? 20:30:14 10° WSW 20:32:51 49° SW 20:32:51 49° SW visible
21 Sep ? 19:43:24 10° WSW 19:46:44 59° SSE 19:47:52 36° E visible
21 Sep ? 21:20:08 10° W 21:20:52 16° W 21:20:52 16° W visible
22 Sep ? 18:56:38 10° SW 18:59:54 47° SSE 19:02:48 12° E visible
22 Sep ? 20:33:14 10° W 20:35:48 48° W 20:35:48 48° W visible
23 Sep ? 19:46:21 10° W 19:49:44 79° S 19:50:41 44° E visible
23 Sep ? 21:23:09 10° W 21:23:40 14° W 21:23:40 14° W visible
24 Sep ? 18:59:28 10° WSW 19:02:50 71° S 19:05:32 15° E visible
24 Sep ? 20:36:16 10° W 20:38:32 39° W 20:38:32 39° W visible
25 Sep ? 19:49:21 10° W 19:52:44 81° S 19:53:21 56° ESE visible
25 Sep ? 21:26:14 10° W 21:26:21 11° W 21:26:21 11° W visible
26 Sep ? 19:02:27 10° W 19:05:49 83° S 19:08:11 19° E visible
26 Sep ? 20:39:17 10° W 20:41:10 29° W 20:41:10 29° W visible
27 Sep ? 19:52:22 10° W 19:55:43 63° SSW 19:55:59 59° SSE visible
28 Sep ? 19:05:26 10° W 19:08:49 73° S 19:10:49 22° ESE visible
28 Sep ? 20:42:24 10° W 20:43:49 20° WSW 20:43:49 20° WSW visible
29 Sep ? 19:55:24 10° W 19:58:34 38° SSW 19:58:40 38° SSW visible
